Regional Weather Roundup
Issued by NWS Wakefield, VA

Home | Current Version | Previous Version | Graphics & Text | Print | Product List | Glossary On
Versions: 1 2 3 4 5 6 7 8 9 10 11 12 13 14 15 16 17 18 19 20 21 22 23 24 25 26 27 28 29 30 31 32 33 34 35 36 37 38 39 40 41 42 43 44 45 46 47 48 49 50
000
ASUS41 KAKQ 292216
RWRAKQ

REGIONAL WEATHER ROUNDUP
NATIONAL WEATHER SERVICE WAKEFIELD VA
600 PM EDT SAT APR 29 2017

Note: "fair" indicates few or no clouds below 12,000 feet with no
significant weather and/or obstructions to visibility. * = Denotes
station may not report precipitation (e.g., rain,snow,etc.),
thunder or fog.

VAZ042-051-052>054-056-292300-
NORTHERN VIRGINIA

CITY           SKY/WX    TMP DP  RH WIND       PRES   REMARKS
WASH NATIONAL  CLOUDY    90  65  43 W7        30.03S
DULLES         CLOUDY    85  69  58 SW6       30.04S
FORT BELVOIR   CLOUDY    87  71  58 CALM      30.03S
QUANTICO       CLOUDY    79  72  79 S7        30.04R
FREDERICKSBRG* CLOUDY    88  71  56 S8        30.03S
STAFFORD*      MOSUNNY   85  69  59 SW6       30.07S
WARRENTON      CLOUDY    88  64  45 S3        30.04S
CULPEPER*      CLOUDY    86  71  60 SW3       30.05S
MANASSAS*        N/A     87  70  56 CALM      30.04S
LEESBURG*      CLOUDY    88  70  55 CALM      30.05S
WINCHESTER     CLOUDY    82  63  51 CALM      30.05F
FRONT ROYAL*   CLOUDY    82  72  69 CALM      30.04F
LURAY*         CLOUDY    86  66  51 CALM      30.06S
$$

VAZ048-049-060>072-079>083-292300-
CENTRAL AND SOUTH CENTRAL VIRGINIA

CITY           SKY/WX    TMP DP  RH WIND       PRES   REMARKS
RICHMOND       CLOUDY    87  72  60 SW15      30.06S
CHESTERFIELD*  FAIR     N/A N/A N/A SW10      30.08S
PETERSBURG*    MOSUNNY   87  69  55 SW8       30.08F
HANOVER        CLOUDY    87  69  54 S10       30.07F
TAPPAHANNOCK*  CLOUDY    88  61  40 SW7       30.06S
QUINTON*       FAIR      87  72  61 W5        30.06S
CHARLOTTSVILLE CLOUDY    87  68  52 S10       30.05F
GORDONSVILLE*  CLOUDY    86  69  57 S8        30.04F
ORANGE*        CLOUDY    86  68  54 SW3       30.04S
LOUISA*          N/A    N/A N/A N/A MISG      30.05S
BUMPASS*       FAIR      85  72  65 SW3       30.06S
FARMVILLE*     SUNNY     86  72  61 S13G20    30.06F
CREWE*         FAIR      85  72  64 SW9G17    30.09S
FORT PICKETT*  NOT AVBL
CHASE CITY*    FAIR      86  71  60 S6        30.11S
CLARKSVILLE*   FAIR      84  73  70 S7        30.10F
SOUTH HILL*    MOSUNNY   84  73  70 S12       30.17S
LAWRENCEVILLE* FAIR      85  72  65 MISG      30.11S
EMPORIA*       SUNNY     84  72  65 S5        30.12S
$$

VAZ088>098-292300-
SOUTHEAST VIRGINIA

CITY           SKY/WX    TMP DP  RH WIND       PRES   REMARKS
NORFOLK        MOSUNNY   89  71  55 SW17      30.07F HX  95
VIRGINIA BEACH PTSUNNY   87  69  54 SW15      30.07S
NORFOLK NAVAL  MOSUNNY   87  70  56 SW10G21   30.09S
WEST POINT*    SUNNY     86  68  54 SW12      30.07S
SALUDA*        FAIR      87  74  64 W5        30.05S HX  96
NEWPORT NEWS   SUNNY     87  72  60 SW15      30.06F
LANGLEY AFB    MOSUNNY   87  73  63 SW20      30.06F
FORT EUSTIS    SUNNY     88  73  60 SW7       30.05F HX  96
WILLIAMSBURG*  SUNNY     90  73  58 SW7       30.07S HX  98
HR EXEC AP*    FAIR      88  72  58 SW10G16   30.05F
FRANKLIN*      SUNNY     86  71  61 SW8       30.10S
US460-WAKEFLD  SUNNY     88  73  61 SW6       30.08F HX  95
$$

VAZ020-022-025-037-045-292300-
WEST CENTRAL AND SOUTHWEST VIRGINIA

CITY           SKY/WX    TMP DP  RH WIND       PRES   REMARKS
STAUNTON*      CLOUDY    83  68  60 S7        30.09F
WAYNESBORO*    CLOUDY    83  69  61 S5        30.10S
HOT SPRINGS VA CLOUDY    73  57  56 S8        30.24S
LYNCHBURG      MOSUNNY   84  69  60 S13       30.10F
DANVILLE       SUNNY     85  72  65 S9        30.11S
SOUTH BOSTON*  FAIR      86  69  58 SW6       30.11S
MARTINSVILLE   MOSUNNY   85  69  58 S3        30.14F
ROANOKE        CLOUDY    83  67  58 SE14      30.10F
BLACKSBURG     CLOUDY    80  65  59 S7        30.15F
DUBLIN*        CLOUDY    79  61  52 SW7       30.14F
MARION*        LGT RAIN  64  63  94 CALM      30.19S
HILLSVILLE*    PTSUNNY   77  67  71 CALM      30.18F
RICHLANDS*     MOCLDY    82  61  48 S7G17     30.12F
WISE*          CLOUDY    82  55  39 S14       30.12F
ABINGDON*      CLOUDY    86  62  43 SW5       30.10R
$$

MDZ021>025-VAZ099-100-292300-
SOUTHERN MARYLAND AND THE DELMARVA PENINSULA

CITY           SKY/WX    TMP DP  RH WIND       PRES   REMARKS
PATUXENT RIVER CLOUDY    88  73  61 W8        30.04R HX  95
BAY BRIDGE APT CLOUDY    84  70  61 SE5       30.03S
LEONARDTOWN    CLOUDY    86  68  54 SW6       30.06S
DOVER          CLOUDY    86  77  73 W7        30.02S HX  97
GEORGETOWN     PTSUNNY   88  71  57 SW9       30.05R
EASTON         MOSUNNY   86  72  62 SW6       30.07F
CAMBRIDGE      SUNNY     86  72  62 S5        30.04S
SALISBURY      SUNNY     85  73  67 W13       30.05R
OCEAN CITY     MOSUNNY   77  69  76 S10       30.06R
WALLOPS ISLAND CLOUDY    77  71  82 S9        30.07R
ACCOMACK*      CLOUDY    87  73  62 SW9       30.06S
$$

NCZ012>017-030>032-292300-
NORTH CENTRAL AND EASTERN NORTH CAROLINA

CITY           SKY/WX    TMP DP  RH WIND       PRES   REMARKS
ROANOKE RAPIDS FAIR      84  72  65 S6        30.12S
RALEIGH        PTSUNNY   87  69  54 S12       30.13S
ELIZABETH CITY SUNNY     86  73  65 S9        30.12R
AHOSKIE*         N/A     85  71  64 SW3       30.12S
EDENTON*       SUNNY     87  72  59 SW10      30.13S
CURRITUCK*     SUNNY     87  69  54 SW9G17    30.12S
KILL DEVIL HLS SUNNY     82  71  70 S8        30.13R
MANTEO         SUNNY     80  72  76 SW17      30.15R
CAPE HATTERAS  SUNNY     78  71  79 SW13G20   30.19F HAZE
TARBORO*       NOT AVBL
GOLDSBORO      PTSUNNY   88  69  51 SW6       30.12S
WASHINGTON     SUNNY     87  71  59 SW7       30.14S
GREENVILLE     MOSUNNY   86  70  58 SW10      30.15S
NEW BERN       SUNNY     83  72  69 SW14      30.17R
WILMINGTON     SUNNY     81  69  67 S13       30.18S
$$

VAZ048-292300-
ELSEWHERE

CITY           SKY/WX    TMP DP  RH WIND       PRES   REMARKS
HARRISBURG PA  CLOUDY    79  62  56 W6        30.02F
BALTIMORE      CLOUDY    86  65  49 NW5       30.02S
ANNAPOLIS      PTSUNNY   88  68  51 CALM      30.02S
ANDREWS AFB    SUNNY     86  68  55 SW6       30.03S
PHILADELPHIA   CLOUDY    84  60  44 W14       30.03S
HENDERSON NC   SUNNY     83  69  61 S8        30.12S
GREENSBORO     PTSUNNY   84  72  67 S13       30.13S
ROCKY MOUNT    MOSUNNY   86  72  62 SW8       30.13S
$$

VAZ100-292300-
MARINE

STATION/POSITION TIME  TEMP    WIND        PRES    WAVE   SWELL
                       AIR SEA DIR/SP/G            HT/PER HT/PER
                 (UTC) (F)     (DEG/KT/KT) (MB)    (FT/S) (FT/S)
CAPE MAY NJ      2148   75 62  250/  2/  3 1017.0S
LEWES DE         2148   87 59  290/  7/ 10 1017.2R
15NM E FENWICK I 2150   62 58  210/ 14/ 16 1018.0R   4/ 6   2/ 8
OCEAN-CITY-INLET 2148   63 66  210/ 12/ 14 1018.1R
WACHAPREAGUE VA  2148   78 79  150/  7/ 10 1017.6S
THOMAS POINT MD  2200   80 60  170/ 10/ 10   N/A
GOOSES REEF MD   2200   75 60  170/  8/  8 1017.7    1
COVE POINT MD    2148   78     170/  8/  9 1017.8R
SOLOMONS ISLAND  2148   83 64  240/  5/  7   N/A
BISHOPS HEAD MD  2148   74 72  150/  7/  8 1018.1S
PINEY POINT MD   2148          260/  5/  8   N/A
POTOMAC MD       2200   76 69  240/  4/  6 1016.5    1
CAMBRIDGE MD     2142   89 68                N/A
LEWISETTA VA     2148   87 70  250/  8/ 10 1017.1F
RAPPAHANNOCK LGT 2148          190/ 13/ 13 1018.4F
STINGRAY PT      2200   79 65  260/  8/  8 1018.1    1
YORK RVR RNG VA  2148   83     250/ 17/ 21 1017.2F
YORKTOWN VA      2148   86 67  220/ 11/ 15 1017.4F
JAMESTOWN VA     2200   85 74  220/ 10/ 16   N/A
DOMINION TERM VA 2148   80     230/  8/  9 1018.6F
KIPTOPEKE VA     2148      65  240/ 10/ 12   N/A
CHES BAY BRIDGE  2148   83 68  260/ 15/ 16 1018.0F
CAPE HENRY VA    2148   88     230/  8/ 14   N/A
WILLOUBY STN VA  2148   83     240/ 15/ 16 1019.1F
S CRANEY ISL VA  2148   87     210/ 12/ 16 1018.2F
CAPE HENRY BUOY  2142      65                N/A     2/ 8
1ST LANDING BUOY 2200   79 64              1018.2    1
CAPE CHARLES BUO 2151      66                N/A     2/ 8
64NM E OF VA BCH 2150   64 58  210/ 16/ 19 1020.5S   3/ 8   2/ 8
DUCK PIER NC     2148   82 58  190/ 10/ 16 1019.7S
44100 DUCK FRF   2105      63                N/A     3/ 7
44056 DUCK FRF   2200      62                N/A     2/ 7
OREGON INLET NC  2148          190/ 20/ 24   N/A
HATTERAS NC      2148   77 74  200/ 13/ 18 1022.1F
DIAMOND SHLS NC  2150   77 76  210/ 16/ 19 1022.4F   4/ 5   2/ 7
CAPE LOOKOUT NC  2200   76     200/ 10/ 13 1022.1F
$$



USA.gov is the U.S. government's official web portal to all federal, state and local government web resources and services.